Lapse_Rate
5.9 5.4 5.5 5.9 5.6 5.6 5.6 5.5 5.5 5.5 5.5 5.6 5.6 5.6 5.6 5.6 5.7 5.9 5.6 5.4 5.3 4.9 5.0 5.0 5.2 5.6 6.2
6.0 5.5 5.2 5.1 5.4 5.4 5.2 5.2 5.3 5.4 5.6 5.7 5.5 5.6 5.6 5.6 5.7 6.2 6.3 5.8 5.1 4.7 4.4 5.3 5.8 5.3 5.5
6.1 5.6 5.3 5.0 5.0 5.0 5.0 5.1 5.0 4.9 5.1 5.2 5.3 5.4 5.6 5.8 6.4 6.8 6.8 7.0 5.9 4.8 4.7 5.2 5.4 5.7 5.9
5.9 5.9 5.4 5.0 4.8 5.1 4.9 4.8 4.9 4.6 4.7 5.1 5.3 5.5 5.9 6.4 6.4 6.9 6.9 6.7 7.5 6.7 5.5 5.8 6.4 6.1 5.5
5.7 6.0 5.9 5.3 4.9 4.9 5.0 5.2 5.2 4.8 4.8 5.1 5.1 5.5 6.0 6.8 6.3 6.5 6.5 6.6 6.3 6.0 6.3 6.5 6.4 5.5 5.3
6.1 6.0 5.9 5.4 5.2 5.2 5.1 5.0 5.2 5.2 4.9 5.1 4.9 5.4 5.6 6.2 5.7 6.0 5.9 5.8 5.9 5.9 5.7 6.5 6.0 5.5 5.8
6.0 5.9 5.7 5.6 5.5 5.2 4.9 4.8 5.0 5.0 5.0 5.3 5.2 5.3 5.5 5.6 5.7 5.7 5.9 5.9 6.1 6.1 6.2 5.9 5.9 6.1 5.9
5.7 6.0 5.8 5.6 5.5 5.5 5.4 5.2 5.0 4.9 5.0 4.9 5.1 5.2 5.5 5.8 5.8 5.8 5.4 5.7 6.1 6.1 6.0 6.0 6.0 5.7 5.7
5.4 5.7 5.8 6.0 5.9 5.6 5.4 5.4 5.6 5.2 5.1 5.0 4.9 5.1 5.1 5.6 5.8 5.8 5.8 5.9 5.6 5.7 5.4 5.4 5.7 5.8 5.9
5.4 5.2 5.8 5.9 6.0 6.0 5.5 5.5 5.3 5.3 5.6 5.2 5.0 4.9 5.2 5.2 5.5 5.5 5.6 5.7 5.9 6.1 6.2 6.0 5.9 6.0 5.9
6.0 6.0 5.6 5.6 5.7 6.0 5.6 5.9 5.2 5.0 5.0 5.4 4.9 4.5 4.9 5.1 5.4 5.5 5.8 5.9 5.8 5.9 5.8 5.8 5.8 6.2 6.2
6.4 6.1 6.0 6.1 5.8 5.9 6.0 5.8 5.9 5.0 5.3 5.0 4.7 4.4 4.3 4.4 4.5 4.7 5.2 5.6 5.7 5.8 5.9 5.9 5.8 5.6 5.7
6.6 6.5 6.2 6.0 6.0 6.0 5.8 5.7 5.9 5.7 5.6 5.2 5.0 4.8 4.4 4.3 4.3 4.3 4.5 4.4 4.7 5.5 5.7 5.8 6.0 6.0 6.0
6.4 6.4 6.3 6.3 5.8 5.5 5.5 5.6 5.6 5.9 5.7 5.7 5.4 5.2 5.2 5.2 4.7 4.2 4.5 4.5 4.4 4.6 5.1 5.5 5.8 5.8 5.7
6.2 6.1 6.2 5.9 5.4 5.1 4.7 4.7 5.3 5.6 5.5 5.6 5.3 5.2 5.2 5.0 4.6 4.6 4.5 4.5 4.3 4.5 4.8 5.2 5.4 5.3 5.2
5.7 5.7 5.7 5.7 5.4 4.9 4.8 4.4 4.3 5.0 5.2 5.3 5.4 5.4 5.2 5.0 4.9 4.7 4.7 4.7 4.6 4.7 4.8 4.8 4.8 5.0 5.0
5.5 5.4 5.4 5.4 5.4 5.1 5.1 4.8 4.6 4.8 4.5 4.7 4.9 5.0 5.1 4.9 5.0 4.8 4.7 4.7 4.7 4.6 4.6 4.6 4.5 4.8 4.8
Wind_Speed
6 4 4 8 8 7 11 11 13 19 23 25 25 23 23 24 24 24 24 22 22 23 21 26 29 36 39
10 9 9 9 10 10 8 11 8 18 23 24 26 25 24 24 24 22 22 21 21 22 22 24 31 30 28
9 7 7 6 7 7 8 7 5 16 22 23 22 21 20 20 20 20 19 20 19 22 21 18 19 18 17
8 8 7 6 4 7 7 4 7 9 12 12 17 16 17 15 16 16 19 20 23 23 22 19 18 16 19
8 8 7 5 6 4 6 7 8 8 4 5 7 7 7 10 11 15 18 20 19 20 16 19 18 15 14
8 9 10 8 8 2 3 6 6 1 4 9 6 7 4 5 16 17 18 17 18 8 8 9 10 11 9
9 9 10 5 4 6 5 5 6 8 5 8 3 3 2 4 15 17 18 12 10 6 3 3 5 6 7
8 6 4 4 4 5 7 7 7 7 2 3 1 3 1 2 13 17 16 18 19 19 14 6 7 7 7
14 14 13 8 5 4 4 3 4 2 2 2 2 3 2 2 4 11 15 17 18 18 18 17 13 13 9
5 7 6 4 5 2 3 3 3 3 2 2 3 3 3 1 1 4 4 10 12 15 16 16 15 4 4
5 4 4 3 2 2 4 4 2 4 3 2 2 2 2 3 2 3 3 3 3 5 11 12 12 9 3
3 3 3 3 3 3 4 4 4 6 5 2 2 1 2 2 2 2 2 3 3 2 3 5 7 8 7
3 3 2 3 4 3 4 5 5 4 4 2 2 2 2 3 2 2 3 2 2 1 1 1 1 2 2
3 2 2 2 2 2 2 3 2 2 4 4 4 2 1 3 2 2 1 2 2 2 2 2 1 0 1
2 2 2 2 3 1 2 2 2 2 2 1 4 5 4 4 2 2 1 1 2 2 3 3 3 2 2
3 3 2 2 2 2 1 2 3 3 2 2 2 2 2 1 6 3 1 0 1 2 2 2 3 3 3
3 2 2 2 4 2 2 3 3 2 3 2 1 1 1 1 2 8 1 1 1 2 1 2 2 5 4
Wind_Direction
299 282 288 301 301 281 296 298 298 292 289 289 288 282 277 268 259 256 260 260 267 275 273 272 260 237 233
294 296 297 299 298 305 308 301 293 290 290 287 282 278 274 266 259 256 258 257 261 268 266 271 254 242 245
284 291 292 287 292 305 299 286 283 296 297 289 284 281 271 266 260 261 263 260 267 268 253 238 194 202 178
283 284 278 276 265 286 297 294 306 305 295 282 282 285 284 277 273 267 264 267 265 264 244 220 211 211 194
273 272 272 286 279 270 282 305 301 286 300 307 322 308 293 296 290 283 275 271 268 254 233 212 200 189 197
294 289 290 290 286 268 289 302 305 179 329 309 301 304 326 358 340 325 289 301 293 245 208 183 180 182 187
294 288 285 322 328 297 285 285 276 289 320 290 281 274 351 354 359 7 10 353 353 20 93 129 151 159 160
315 303 300 315 303 298 296 285 277 274 284 262 323 272 312 8 17 15 23 30 34 31 37 84 138 148 158
309 309 307 300 293 309 279 303 285 261 29 308 308 293 311 345 347 12 22 26 31 40 37 29 43 68 73
309 306 306 300 310 300 287 260 287 273 30 323 326 332 310 18 7 348 350 18 22 34 41 37 28 28 57
296 295 294 292 277 290 280 274 242 251 358 10 312 320 284 303 342 8 357 350 19 24 30 31 28 36 43
286 281 278 273 278 276 275 276 260 258 299 304 271 302 309 299 298 343 15 13 10 22 28 20 28 31 33
247 262 247 257 281 269 268 270 267 250 261 251 274 285 274 282 302 323 344 352 13 56 17 36 19 6 19
231 218 257 263 277 264 281 303 287 270 243 226 248 258 286 269 285 290 286 293 329 333 330 329 345 317 289
234 249 259 250 275 264 264 284 266 291 297 313 251 247 223 217 283 279 288 307 307 338 6 333 318 325 310
223 235 235 264 272 279 269 264 281 286 277 268 286 319 330 225 227 260 270 255 327 325 338 321 302 317 314
218 215 223 219 291 295 266 264 266 261 265 253 284 265 289 278 297 214 200 198 306 300 240 253 254 288 292